Weather History for Sivas, Turkey

Change the Weather History Date:

Wednesday, September 5, 2012

  Actual Average Record
Temperature  
Mean Temperature 69 °F -  
Max Temperature 87 °F 74 °F - ()
Min Temperature 51 °F 45 °F - ()
Cooling Degree Days 4    
Growing Degree Days 19 (Base 50)    
Moisture  
Dew Point 42 °F    
Average Humidity 49    
Maximum Humidity 82    
Minimum Humidity 9    
Precipitation  
Precipitation 0.00 in 0.03 in - ()
Sea Level Pressure  
Sea Level Pressure 30.11 in    
Wind  
Wind Speed 6 mph ()    
Max Wind Speed 20 mph    
Max Gust Speed 22 mph    
Visibility 9.0 miles    
Events      
T = Trace of Precipitation, MM = Missing Value Source: Averaged Metar Reports

Daily Weather History Graph

Daily Weather History Graph

Search for Another Location

Airport:

Trip Planner

Search our weather history database for the weather conditions in past years. The results will help you decide how hot, cold, wet, or windy it might be!

Date:

Astronomy

Sep. 05, 2012 Rise Set
Actual Time 6:04 AM EEST 6:57 PM EEST
Civil Twilight 5:36 AM EEST 7:24 PM EEST
Nautical Twilight 5:04 AM EEST 7:57 PM EEST
Astronomical Twilight 4:30 AM EEST 8:30 PM EEST
Moon 9:14 PM EEST (9/5) 10:47 AM EEST (9/5)
Length of Visible Light 13h 47m
Length of Day
12h 52m
Waning Gibbous, 78% of the Moon is Illuminated
Sep 5
Waning Gibbous
Sep 8
Last Quarter
Sep 16
New
Sep 22
First Quarter
Sep 30
Full

Hourly Weather History & Observations

Time (EEST) Temp. Dew Point Humidity Pressure Visibility Wind Dir Wind Speed Gust Speed Precip Events Conditions
12:50 AM 55.4 °F 46.4 °F 72% 30.09 in - NW 6.9 mph - N/A   Clear
3:00 AM 59 °F 48 °F 58%  in 9 mi Calm Calm - -  
4:50 AM 51.8 °F 42.8 °F 71% 30.09 in - NW 3.5 mph - N/A   Clear
5:50 AM 48.2 °F 42.8 °F 82% 30.09 in - WNW 2.3 mph - N/A   Clear
6:50 AM 51.8 °F 42.8 °F 71% 30.09 in - WNW 3.5 mph - N/A   Clear
7:50 AM 59.0 °F 42.8 °F 55% 30.12 in - NNW 4.6 mph - N/A   Clear
8:50 AM 60.8 °F 41.0 °F 48% 30.12 in - WNW 5.8 mph - N/A   Clear
9:00 AM 63 °F 45 °F 41%  in 9 mi Calm Calm - -  
9:50 AM 66.2 °F 39.2 °F 37% 30.12 in - West 3.5 mph - N/A   Clear
10:50 AM 69.8 °F 37.4 °F 31% 30.12 in - WNW 6.9 mph - N/A   Clear
11:50 AM 73.4 °F 33.8 °F 23% 30.12 in - NW 6.9 mph - N/A   Clear
12:50 PM 75.2 °F 33.8 °F 22% 30.12 in - NNW 6.9 mph - N/A   Clear
1:50 PM 77.0 °F 32.0 °F 19% 30.12 in - NNW 9.2 mph 21.9 mph N/A   Clear
2:50 PM 77.0 °F 35.6 °F 22% 30.09 in - NNW 13.8 mph - N/A   Clear
3:00 PM 85 °F 35 °F 9%  in 9 mi North 5.8 mph - -  
3:50 PM 77.0 °F 39.2 °F 26% 30.09 in - North 16.1 mph - N/A   Clear
4:50 PM 75.2 °F 37.4 °F 25% 30.09 in - NNW 18.4 mph - N/A   Clear
5:50 PM 71.6 °F 42.8 °F 35% 30.09 in - NNW 19.6 mph - N/A   Clear
6:50 PM 66.2 °F 48.2 °F 52% 30.12 in - NNW 16.1 mph - N/A   Clear
7:50 PM 60.8 °F 50.0 °F 68% 30.12 in - NNW 13.8 mph - N/A   Clear
8:50 PM 57.2 °F 48.2 °F 72% 30.12 in - North 12.7 mph - N/A   Clear
9:00 PM 67 °F 48 °F 39%  in 9 mi East 2.3 mph - -  
9:50 PM 55.4 °F 48.2 °F 77% 30.15 in - NNW 9.2 mph - N/A   Clear
10:50 PM 53.6 °F 48.2 °F 82% 30.12 in - North 9.2 mph - N/A   Clear
11:50 PM 51.8 °F 46.4 °F 82% 30.15 in - NNW 6.9 mph - N/A   Clear